Time,TemperatureF,DewpointF,PressureIn,WindDirection,WindDirectionDegrees,WindSpeedMPH,WindSpeedGustMPH,Humidity,HourlyPrecipIn,Conditions,Clouds,dailyrainin,SoftwareType,DateUTC
2013-05-09 00:02:00,59.8,52.9,30.08,WSW,258,0.0,0.0,78,0.00,,,0.00,Wunderground v.1.15,2013-05-09 07:02:00,
2013-05-09 00:04:00,59.8,52.9,30.08,WSW,258,0.0,0.0,78,0.00,,,0.00,Wunderground v.1.15,2013-05-09 07:04:00,
2013-05-09 00:06:00,59.8,52.9,30.09,WSW,258,0.0,0.0,78,0.00,,,0.00,Wunderground v.1.15,2013-05-09 07:06:00,
2013-05-09 00:08:00,59.7,52.8,30.09,WSW,258,0.0,0.0,78,0.00,,,0.00,Wunderground v.1.15,2013-05-09 07:08:00,
2013-05-09 00:10:00,59.7,52.8,30.09,WSW,258,0.0,0.0,78,0.00,,,0.00,Wunderground v.1.15,2013-05-09 07:10:00,
2013-05-09 00:12:00,59.6,52.7,30.09,WSW,258,0.0,0.0,78,0.00,,,0.00,Wunderground v.1.15,2013-05-09 07:12:00,
2013-05-09 00:18:00,59.6,53.1,30.09,WSW,258,0.0,0.0,79,0.00,,,0.00,Wunderground v.1.15,2013-05-09 07:18:00,
2013-05-09 00:20:00,59.6,53.1,30.09,WSW,258,0.0,0.0,79,0.00,,,0.00,Wunderground v.1.15,2013-05-09 07:20:00,
2013-05-09 00:22:00,59.6,53.1,30.09,WSW,258,0.0,0.0,79,0.00,,,0.00,Wunderground v.1.15,2013-05-09 07:22:00,
2013-05-09 00:28:00,59.5,53.0,30.09,WSW,258,0.0,0.0,79,0.00,,,0.00,Wunderground v.1.15,2013-05-09 07:28:00,
2013-05-09 00:30:00,59.4,52.9,30.09,WSW,258,0.0,0.0,79,0.00,,,0.00,Wunderground v.1.15,2013-05-09 07:30:00,
2013-05-09 00:36:00,59.2,53.0,30.09,WSW,258,0.0,0.0,80,0.00,,,0.00,Wunderground v.1.15,2013-05-09 07:36:00,
2013-05-09 00:40:00,59.0,52.8,30.09,WSW,258,0.0,0.0,80,0.00,,,0.00,Wunderground v.1.15,2013-05-09 07:40:00,
2013-05-09 00:42:00,59.0,52.8,30.09,WSW,258,0.0,0.0,80,0.00,,,0.00,Wunderground v.1.15,2013-05-09 07:42:00,
2013-05-09 00:48:00,58.7,52.5,30.09,WSW,258,0.0,0.0,80,0.00,,,0.00,Wunderground v.1.15,2013-05-09 07:48:00,
2013-05-09 00:52:00,58.4,52.6,30.09,WSW,258,0.0,0.0,81,0.00,,,0.00,Wunderground v.1.15,2013-05-09 07:52:00,
2013-05-09 00:56:00,58.2,52.4,30.09,WSW,258,0.0,0.0,81,0.00,,,0.00,Wunderground v.1.15,2013-05-09 07:56:00,
2013-05-09 00:58:00,58.0,52.2,30.09,WSW,258,0.0,0.0,81,0.00,,,0.00,Wunderground v.1.15,2013-05-09 07:58:00,
2013-05-09 01:00:00,57.9,52.1,30.09,WSW,258,0.0,0.0,81,0.00,,,0.00,Wunderground v.1.15,2013-05-09 08:00:00,
2013-05-09 01:02:00,57.8,52.0,30.09,WSW,258,0.0,0.0,81,0.00,,,0.00,Wunderground v.1.15,2013-05-09 08:02:00,
2013-05-09 01:04:00,57.7,51.9,30.08,WSW,258,0.0,0.0,81,0.00,,,0.00,Wunderground v.1.15,2013-05-09 08:04:00,
2013-05-09 01:06:00,57.6,51.8,30.09,WSW,258,0.0,0.0,81,0.00,,,0.00,Wunderground v.1.15,2013-05-09 08:06:00,
2013-05-09 01:10:00,57.4,51.9,30.09,WSW,258,0.0,0.0,82,0.00,,,0.00,Wunderground v.1.15,2013-05-09 08:10:00,
2013-05-09 01:12:00,57.3,51.9,30.08,WSW,258,0.0,0.0,82,0.00,,,0.00,Wunderground v.1.15,2013-05-09 08:12:00,
2013-05-09 01:14:00,57.3,51.9,30.09,WSW,258,0.0,0.0,82,0.00,,,0.00,Wunderground v.1.15,2013-05-09 08:14:00,
2013-05-09 01:20:00,57.1,52.0,30.08,WSW,258,0.0,0.0,83,0.00,,,0.00,Wunderground v.1.15,2013-05-09 08:20:00,
2013-05-09 01:24:00,57.0,51.6,30.08,WSW,258,0.0,0.0,82,0.00,,,0.00,Wunderground v.1.15,2013-05-09 08:24:00,
2013-05-09 01:28:00,56.9,51.8,30.08,WSW,258,0.0,0.0,83,0.00,,,0.00,Wunderground v.1.15,2013-05-09 08:28:00,
2013-05-09 01:32:00,56.8,51.7,30.08,WSW,258,0.0,0.0,83,0.00,,,0.00,Wunderground v.1.15,2013-05-09 08:32:00,
2013-05-09 01:38:00,56.7,51.6,30.08,WSW,258,0.0,0.0,83,0.00,,,0.00,Wunderground v.1.15,2013-05-09 08:38:00,
2013-05-09 01:40:00,56.6,51.5,30.08,WSW,258,0.0,0.0,83,0.00,,,0.00,Wunderground v.1.15,2013-05-09 08:40:00,
2013-05-09 01:44:00,56.5,51.4,30.08,WSW,258,0.0,0.0,83,0.00,,,0.00,Wunderground v.1.15,2013-05-09 08:44:00,
2013-05-09 01:46:00,56.4,51.6,30.08,WSW,258,0.0,0.0,84,0.00,,,0.00,Wunderground v.1.15,2013-05-09 08:46:00,
2013-05-09 01:48:00,56.4,51.6,30.08,WSW,258,0.0,0.0,84,0.00,,,0.00,Wunderground v.1.15,2013-05-09 08:48:00,
2013-05-09 01:50:00,56.4,51.6,30.08,WSW,258,0.0,0.0,84,0.00,,,0.00,Wunderground v.1.15,2013-05-09 08:50:00,
2013-05-09 01:54:00,56.4,51.6,30.08,WSW,258,0.0,0.0,84,0.00,,,0.00,Wunderground v.1.15,2013-05-09 08:54:00,
2013-05-09 01:56:00,56.4,51.9,30.08,WSW,258,0.0,0.0,85,0.00,,,0.00,Wunderground v.1.15,2013-05-09 08:56:00,
2013-05-09 01:58:00,56.4,51.9,30.08,WSW,258,0.0,0.0,85,0.00,,,0.00,Wunderground v.1.15,2013-05-09 08:58:00,
2013-05-09 02:00:00,56.3,51.8,30.08,WSW,258,0.0,0.0,85,0.00,,,0.00,Wunderground v.1.15,2013-05-09 09:00:00,
2013-05-09 02:02:00,56.3,51.8,30.08,WSW,258,0.0,0.0,85,0.00,,,0.00,Wunderground v.1.15,2013-05-09 09:02:00,
2013-05-09 02:06:00,56.2,51.7,30.08,WSW,258,0.0,0.0,85,0.00,,,0.00,Wunderground v.1.15,2013-05-09 09:06:00,
2013-05-09 02:08:00,56.2,51.7,30.08,WSW,258,0.0,0.0,85,0.00,,,0.00,Wunderground v.1.15,2013-05-09 09:08:00,
2013-05-09 02:14:00,56.1,51.7,30.08,WSW,258,0.0,0.0,85,0.00,,,0.00,Wunderground v.1.15,2013-05-09 09:14:00,
2013-05-09 02:18:00,55.9,51.5,30.08,WSW,258,0.0,0.0,85,0.00,,,0.00,Wunderground v.1.15,2013-05-09 09:18:00,
2013-05-09 02:20:00,55.9,51.5,30.08,WSW,258,0.0,0.0,85,0.00,,,0.00,Wunderground v.1.15,2013-05-09 09:20:00,
2013-05-09 02:24:00,55.9,51.8,30.08,WSW,258,0.0,0.0,86,0.00,,,0.00,Wunderground v.1.15,2013-05-09 09:24:00,
2013-05-09 02:26:00,55.9,51.8,30.08,WSW,258,0.0,0.0,86,0.00,,,0.00,Wunderground v.1.15,2013-05-09 09:26:00,
2013-05-09 02:30:00,55.9,51.8,30.08,WSW,258,0.0,0.0,86,0.00,,,0.00,Wunderground v.1.15,2013-05-09 09:30:00,
2013-05-09 02:32:00,55.9,51.8,30.08,WSW,258,0.0,0.0,86,0.00,,,0.00,Wunderground v.1.15,2013-05-09 09:32:00,
2013-05-09 02:34:00,55.8,51.7,30.08,WSW,258,0.0,0.0,86,0.00,,,0.00,Wunderground v.1.15,2013-05-09 09:34:00,
2013-05-09 02:36:00,55.8,51.7,30.08,WSW,258,0.0,0.0,86,0.00,,,0.00,Wunderground v.1.15,2013-05-09 09:36:00,
2013-05-09 02:38:00,55.8,51.7,30.07,WSW,258,0.0,0.0,86,0.00,,,0.00,Wunderground v.1.15,2013-05-09 09:38:00,
2013-05-09 02:42:00,55.9,51.8,30.07,WSW,258,0.0,0.0,86,0.00,,,0.00,Wunderground v.1.15,2013-05-09 09:42:00,
2013-05-09 02:44:00,55.8,51.7,30.08,WSW,258,0.0,0.0,86,0.00,,,0.00,Wunderground v.1.15,2013-05-09 09:44:00,
2013-05-09 02:50:00,55.6,51.5,30.07,WSW,258,0.0,0.0,86,0.00,,,0.00,Wunderground v.1.15,2013-05-09 09:50:00,
2013-05-09 02:52:00,55.6,51.5,30.07,WSW,258,0.0,0.0,86,0.00,,,0.00,Wunderground v.1.15,2013-05-09 09:52:00,
2013-05-09 02:56:00,55.5,51.4,30.07,WSW,258,0.0,0.0,86,0.00,,,0.00,Wunderground v.1.15,2013-05-09 09:56:00,
2013-05-09 02:58:00,55.5,51.4,30.07,WSW,258,0.0,0.0,86,0.00,,,0.00,Wunderground v.1.15,2013-05-09 09:58:00,
2013-05-09 03:02:00,55.5,51.4,30.07,WSW,258,0.0,0.0,86,0.00,,,0.00,Wunderground v.1.15,2013-05-09 10:02:00,
2013-05-09 03:04:00,55.6,51.8,30.07,WSW,258,0.0,0.0,87,0.00,,,0.00,Wunderground v.1.15,2013-05-09 10:04:00,
2013-05-09 03:06:00,55.6,51.8,30.07,WSW,258,0.0,0.0,87,0.00,,,0.00,Wunderground v.1.15,2013-05-09 10:06:00,
2013-05-09 03:08:00,55.5,51.7,30.07,WSW,258,0.0,0.0,87,0.00,,,0.00,Wunderground v.1.15,2013-05-09 10:08:00,
2013-05-09 03:10:00,55.5,51.4,30.07,WSW,258,0.0,0.0,86,0.00,,,0.00,Wunderground v.1.15,2013-05-09 10:10:00,
2013-05-09 03:12:00,55.5,51.4,30.07,WSW,258,0.0,0.0,86,0.00,,,0.00,Wunderground v.1.15,2013-05-09 10:12:00,
2013-05-09 03:18:00,55.3,51.5,30.07,WSW,258,0.0,0.0,87,0.00,,,0.00,Wunderground v.1.15,2013-05-09 10:18:00,
2013-05-09 03:20:00,55.3,51.2,30.07,WSW,258,0.0,0.0,86,0.00,,,0.00,Wunderground v.1.15,2013-05-09 10:20:00,
2013-05-09 03:24:00,55.3,51.5,30.07,WSW,258,0.0,0.0,87,0.00,,,0.00,Wunderground v.1.15,2013-05-09 10:24:00,
2013-05-09 03:26:00,55.3,51.5,30.07,WSW,258,0.0,0.0,87,0.00,,,0.00,Wunderground v.1.15,2013-05-09 10:26:00,
2013-05-09 03:32:00,55.1,51.0,30.07,WSW,258,0.0,0.0,86,0.00,,,0.00,Wunderground v.1.15,2013-05-09 10:32:00,
2013-05-09 03:34:00,55.1,51.3,30.07,WSW,258,0.0,0.0,87,0.00,,,0.00,Wunderground v.1.15,2013-05-09 10:34:00,
2013-05-09 03:36:00,55.2,51.4,30.07,WSW,258,0.0,0.0,87,0.00,,,0.00,Wunderground v.1.15,2013-05-09 10:36:00,
2013-05-09 03:38:00,55.1,51.3,30.07,WSW,258,0.0,0.0,87,0.00,,,0.00,Wunderground v.1.15,2013-05-09 10:38:00,
2013-05-09 03:44:00,55.1,51.3,30.07,WSW,258,0.0,0.0,87,0.00,,,0.00,Wunderground v.1.15,2013-05-09 10:44:00,
2013-05-09 03:46:00,55.1,51.3,30.07,WSW,258,0.0,0.0,87,0.00,,,0.00,Wunderground v.1.15,2013-05-09 10:46:00,
2013-05-09 03:50:00,55.0,51.2,30.07,WSW,258,0.0,0.0,87,0.00,,,0.00,Wunderground v.1.15,2013-05-09 10:50:00,
2013-05-09 03:52:00,55.0,51.2,30.07,WSW,258,0.0,0.0,87,0.00,,,0.00,Wunderground v.1.15,2013-05-09 10:52:00,
2013-05-09 03:54:00,54.9,51.1,30.07,WSW,258,0.0,0.0,87,0.00,,,0.00,Wunderground v.1.15,2013-05-09 10:54:00,
2013-05-09 03:58:00,54.9,51.1,30.07,WSW,258,0.0,0.0,87,0.00,,,0.00,Wunderground v.1.15,2013-05-09 10:58:00,
2013-05-09 04:02:00,54.9,51.1,30.06,WSW,258,0.0,0.0,87,0.00,,,0.00,Wunderground v.1.15,2013-05-09 11:02:00,
2013-05-09 04:04:00,54.9,51.1,30.06,WSW,258,0.0,0.0,87,0.00,,,0.00,Wunderground v.1.15,2013-05-09 11:04:00,
2013-05-09 04:06:00,54.9,51.1,30.07,WSW,258,0.0,0.0,87,0.00,,,0.00,Wunderground v.1.15,2013-05-09 11:06:00,
2013-05-09 04:08:00,54.9,51.1,30.06,WSW,258,0.0,0.0,87,0.00,,,0.00,Wunderground v.1.15,2013-05-09 11:08:00,
2013-05-09 04:12:00,54.9,51.1,30.06,WSW,258,0.0,0.0,87,0.00,,,0.00,Wunderground v.1.15,2013-05-09 11:12:00,
2013-05-09 04:14:00,54.9,51.4,30.07,WSW,258,0.0,0.0,88,0.00,,,0.00,Wunderground v.1.15,2013-05-09 11:14:00,
2013-05-09 04:16:00,54.9,51.4,30.07,WSW,258,0.0,0.0,88,0.00,,,0.00,Wunderground v.1.15,2013-05-09 11:16:00,
2013-05-09 04:18:00,54.9,51.1,30.07,WSW,258,0.0,0.0,87,0.00,,,0.00,Wunderground v.1.15,2013-05-09 11:18:00,
2013-05-09 04:20:00,54.9,51.1,30.07,WSW,258,0.0,0.0,87,0.00,,,0.00,Wunderground v.1.15,2013-05-09 11:20:00,
2013-05-09 04:22:00,54.9,51.1,30.06,WSW,258,0.0,0.0,87,0.00,,,0.00,Wunderground v.1.15,2013-05-09 11:22:00,
2013-05-09 04:24:00,54.8,51.0,30.06,WSW,258,0.0,0.0,87,0.00,,,0.00,Wunderground v.1.15,2013-05-09 11:24:00,
2013-05-09 04:28:00,54.7,50.9,30.06,WSW,258,0.0,0.0,87,0.00,,,0.00,Wunderground v.1.15,2013-05-09 11:28:00,
2013-05-09 04:30:00,54.6,50.8,30.06,WSW,258,0.0,0.0,87,0.00,,,0.00,Wunderground v.1.15,2013-05-09 11:30:00,
2013-05-09 04:32:00,54.6,50.8,30.06,WSW,258,0.0,0.0,87,0.00,,,0.00,Wunderground v.1.15,2013-05-09 11:32:00,
2013-05-09 04:34:00,54.6,50.8,30.06,WSW,258,0.0,0.0,87,0.00,,,0.00,Wunderground v.1.15,2013-05-09 11:34:00,
2013-05-09 04:36:00,54.6,50.8,30.06,WSW,258,0.0,0.0,87,0.00,,,0.00,Wunderground v.1.15,2013-05-09 11:36:00,
2013-05-09 04:42:00,54.6,51.1,30.06,WSW,258,0.0,0.0,88,0.00,,,0.00,Wunderground v.1.15,2013-05-09 11:42:00,
2013-05-09 04:44:00,54.6,51.1,30.06,WSW,258,0.0,0.0,88,0.00,,,0.00,Wunderground v.1.15,2013-05-09 11:44:00,
2013-05-09 04:46:00,54.6,51.1,30.06,WSW,258,0.0,0.0,88,0.00,,,0.00,Wunderground v.1.15,2013-05-09 11:46:00,
2013-05-09 04:48:00,54.5,51.0,30.06,WSW,258,0.0,0.0,88,0.00,,,0.00,Wunderground v.1.15,2013-05-09 11:48:00,
2013-05-09 04:52:00,54.5,51.0,30.06,WSW,258,0.0,0.0,88,0.00,,,0.00,Wunderground v.1.15,2013-05-09 11:52:00,
2013-05-09 04:54:00,54.5,51.0,30.06,WSW,258,0.0,0.0,88,0.00,,,0.00,Wunderground v.1.15,2013-05-09 11:54:00,
2013-05-09 04:56:00,54.6,51.1,30.06,WSW,258,0.0,0.0,88,0.00,,,0.00,Wunderground v.1.15,2013-05-09 11:56:00,
2013-05-09 05:00:00,54.6,51.1,30.06,WSW,258,0.0,0.0,88,0.00,,,0.00,Wunderground v.1.15,2013-05-09 12:00:00,
2013-05-09 05:06:00,54.5,51.0,30.06,WSW,258,0.0,0.0,88,0.00,,,0.00,Wunderground v.1.15,2013-05-09 12:06:00,
2013-05-09 05:08:00,54.5,51.0,30.06,WSW,258,0.0,0.0,88,0.00,,,0.00,Wunderground v.1.15,2013-05-09 12:08:00,
2013-05-09 05:10:00,54.4,50.9,30.06,WSW,258,0.0,0.0,88,0.00,,,0.00,Wunderground v.1.15,2013-05-09 12:10:00,
2013-05-09 05:12:00,54.4,50.9,30.06,WSW,258,0.0,0.0,88,0.00,,,0.00,Wunderground v.1.15,2013-05-09 12:12:00,
2013-05-09 05:14:00,54.3,50.8,30.06,WSW,258,0.0,0.0,88,0.00,,,0.00,Wunderground v.1.15,2013-05-09 12:14:00,
2013-05-09 05:16:00,54.3,50.8,30.06,WSW,258,0.0,0.0,88,0.00,,,0.00,Wunderground v.1.15,2013-05-09 12:16:00,
2013-05-09 05:18:00,54.2,50.7,30.06,WSW,258,0.0,0.0,88,0.00,,,0.00,Wunderground v.1.15,2013-05-09 12:18:00,
2013-05-09 05:20:00,54.3,50.8,30.06,WSW,258,0.0,0.0,88,0.00,,,0.00,Wunderground v.1.15,2013-05-09 12:20:00,
2013-05-09 05:22:00,54.3,50.8,30.06,WSW,258,0.0,0.0,88,0.00,,,0.00,Wunderground v.1.15,2013-05-09 12:22:00,
2013-05-09 05:28:00,54.4,50.9,30.06,WSW,258,0.0,0.0,88,0.00,,,0.00,Wunderground v.1.15,2013-05-09 12:28:00,
2013-05-09 05:30:00,54.4,50.9,30.06,WSW,258,0.0,0.0,88,0.00,,,0.00,Wunderground v.1.15,2013-05-09 12:30:00,
2013-05-09 05:32:00,54.5,51.0,30.06,WSW,258,0.0,0.0,88,0.00,,,0.00,Wunderground v.1.15,2013-05-09 12:32:00,
2013-05-09 05:36:00,54.4,50.9,30.06,WSW,258,0.0,0.0,88,0.00,,,0.00,Wunderground v.1.15,2013-05-09 12:36:00,
2013-05-09 05:38:00,54.4,50.9,30.06,WSW,258,0.0,0.0,88,0.00,,,0.00,Wunderground v.1.15,2013-05-09 12:38:00,
2013-05-09 05:40:00,54.5,51.0,30.06,WSW,258,0.0,0.0,88,0.00,,,0.00,Wunderground v.1.15,2013-05-09 12:40:00,
2013-05-09 05:42:00,54.5,51.0,30.06,WSW,258,0.0,0.0,88,0.00,,,0.00,Wunderground v.1.15,2013-05-09 12:42:00,
2013-05-09 05:46:00,54.6,51.1,30.06,WSW,258,0.0,0.0,88,0.00,,,0.00,Wunderground v.1.15,2013-05-09 12:46:00,
2013-05-09 05:48:00,54.6,51.1,30.06,WSW,258,0.0,0.0,88,0.00,,,0.00,Wunderground v.1.15,2013-05-09 12:48:00,
2013-05-09 05:50:00,54.6,51.1,30.07,WSW,258,0.0,0.0,88,0.00,,,0.00,Wunderground v.1.15,2013-05-09 12:50:00,
2013-05-09 05:52:00,54.6,51.1,30.07,WSW,258,0.0,0.0,88,0.00,,,0.00,Wunderground v.1.15,2013-05-09 12:52:00,
2013-05-09 05:56:00,54.5,51.0,30.06,WSW,258,0.0,0.0,88,0.00,,,0.00,Wunderground v.1.15,2013-05-09 12:56:00,
2013-05-09 06:00:00,54.5,51.0,30.07,WSW,258,0.0,0.0,88,0.00,,,0.00,Wunderground v.1.15,2013-05-09 13:00:00,
2013-05-09 06:02:00,54.5,51.0,30.07,WSW,258,0.0,0.0,88,0.00,,,0.00,Wunderground v.1.15,2013-05-09 13:02:00,
2013-05-09 06:04:00,54.5,51.0,30.07,WSW,258,0.0,0.0,88,0.00,,,0.00,Wunderground v.1.15,2013-05-09 13:04:00,
2013-05-09 06:08:00,54.4,50.9,30.07,WSW,258,0.0,0.0,88,0.00,,,0.00,Wunderground v.1.15,2013-05-09 13:08:00,
2013-05-09 06:10:00,54.5,51.0,30.07,WSW,258,0.0,0.0,88,0.00,,,0.00,Wunderground v.1.15,2013-05-09 13:10:00,
2013-05-09 06:12:00,54.5,51.0,30.07,WSW,258,0.0,0.0,88,0.00,,,0.00,Wunderground v.1.15,2013-05-09 13:12:00,
2013-05-09 06:14:00,54.5,51.0,30.07,WSW,258,0.0,0.0,88,0.00,,,0.00,Wunderground v.1.15,2013-05-09 13:14:00,
2013-05-09 06:18:00,54.5,51.0,30.07,WSW,258,0.0,0.0,88,0.00,,,0.00,Wunderground v.1.15,2013-05-09 13:18:00,
2013-05-09 06:20:00,54.5,51.0,30.07,WSW,258,0.0,0.0,88,0.00,,,0.00,Wunderground v.1.15,2013-05-09 13:20:00,
2013-05-09 06:22:00,54.5,51.0,30.07,WSW,258,0.0,0.0,88,0.00,,,0.00,Wunderground v.1.15,2013-05-09 13:22:00,
2013-05-09 06:24:00,54.5,51.0,30.07,WSW,258,0.0,0.0,88,0.00,,,0.00,Wunderground v.1.15,2013-05-09 13:24:00,
2013-05-09 06:28:00,54.5,51.0,30.07,WSW,258,0.0,0.0,88,0.00,,,0.00,Wunderground v.1.15,2013-05-09 13:28:00,
2013-05-09 06:30:00,54.6,51.1,30.07,WSW,258,0.0,0.0,88,0.00,,,0.00,Wunderground v.1.15,2013-05-09 13:30:00,
2013-05-09 06:36:00,54.6,51.4,30.07,WSW,258,0.0,0.0,89,0.00,,,0.00,Wunderground v.1.15,2013-05-09 13:36:00,
2013-05-09 06:38:00,54.7,51.5,30.07,WSW,258,0.0,0.0,89,0.00,,,0.00,Wunderground v.1.15,2013-05-09 13:38:00,
2013-05-09 06:42:00,54.9,51.7,30.07,WSW,258,0.0,0.0,89,0.00,,,0.00,Wunderground v.1.15,2013-05-09 13:42:00,
2013-05-09 06:44:00,55.0,51.8,30.07,WSW,258,0.0,0.0,89,0.00,,,0.00,Wunderground v.1.15,2013-05-09 13:44:00,
2013-05-09 06:50:00,55.3,52.1,30.07,WSW,258,0.0,0.0,89,0.00,,,0.00,Wunderground v.1.15,2013-05-09 13:50:00,
2013-05-09 06:52:00,55.4,52.2,30.07,WSW,258,0.0,0.0,89,0.00,,,0.00,Wunderground v.1.15,2013-05-09 13:52:00,
2013-05-09 06:58:00,56.0,52.8,30.07,WSW,258,0.0,0.0,89,0.00,,,0.00,Wunderground v.1.15,2013-05-09 13:58:00,
2013-05-09 07:02:00,56.4,53.2,30.07,WSW,258,0.0,0.0,89,0.00,,,0.00,Wunderground v.1.15,2013-05-09 14:02:00,
2013-05-09 07:04:00,56.7,53.5,30.07,WSW,258,0.0,0.0,89,0.00,,,0.00,Wunderground v.1.15,2013-05-09 14:04:00,
2013-05-09 07:08:00,57.2,54.0,30.07,WSW,258,0.0,0.0,89,0.00,,,0.00,Wunderground v.1.15,2013-05-09 14:08:00,
2013-05-09 07:12:00,57.7,54.5,30.07,WSW,258,0.0,0.0,89,0.00,,,0.00,Wunderground v.1.15,2013-05-09 14:12:00,
2013-05-09 07:14:00,57.9,54.7,30.07,WSW,258,0.0,0.0,89,0.00,,,0.00,Wunderground v.1.15,2013-05-09 14:14:00,
2013-05-09 07:20:00,58.7,55.2,30.07,WSW,258,0.0,0.0,88,0.00,,,0.00,Wunderground v.1.15,2013-05-09 14:20:00,
2013-05-09 07:24:00,59.2,55.6,30.07,WSW,258,0.0,0.0,88,0.00,,,0.00,Wunderground v.1.15,2013-05-09 14:24:00,
2013-05-09 07:26:00,59.4,55.8,30.07,WSW,258,0.0,0.0,88,0.00,,,0.00,Wunderground v.1.15,2013-05-09 14:26:00,
2013-05-09 07:30:00,60.0,56.4,30.07,WSW,258,0.0,0.0,88,0.00,,,0.00,Wunderground v.1.15,2013-05-09 14:30:00,
2013-05-09 07:32:00,60.2,56.6,30.07,WSW,258,0.0,0.0,88,0.00,,,0.00,Wunderground v.1.15,2013-05-09 14:32:00,
2013-05-09 07:36:00,60.6,56.7,30.07,WSW,258,0.0,0.0,87,0.00,,,0.00,Wunderground v.1.15,2013-05-09 14:36:00,
2013-05-09 07:40:00,61.1,56.9,30.07,WSW,258,0.0,0.0,86,0.00,,,0.00,Wunderground v.1.15,2013-05-09 14:40:00,
2013-05-09 07:44:00,61.4,56.8,30.07,WSW,258,0.0,0.0,85,0.00,,,0.00,Wunderground v.1.15,2013-05-09 14:44:00,
2013-05-09 07:46:00,61.5,56.9,30.07,WSW,258,0.0,0.0,85,0.00,,,0.00,Wunderground v.1.15,2013-05-09 14:46:00,
2013-05-09 07:48:00,61.6,57.0,30.07,WSW,258,0.0,0.0,85,0.00,,,0.00,Wunderground v.1.15,2013-05-09 14:48:00,
2013-05-09 07:50:00,61.8,57.2,30.07,WSW,258,0.0,0.0,85,0.00,,,0.00,Wunderground v.1.15,2013-05-09 14:50:00,
2013-05-09 07:52:00,61.9,57.3,30.07,WSW,258,0.0,0.0,85,0.00,,,0.00,Wunderground v.1.15,2013-05-09 14:52:00,
2013-05-09 07:54:00,62.0,57.1,30.07,WSW,258,0.0,0.0,84,0.00,,,0.00,Wunderground v.1.15,2013-05-09 14:54:00,
2013-05-09 07:56:00,62.2,57.3,30.07,WSW,258,0.0,0.0,84,0.00,,,0.00,Wunderground v.1.15,2013-05-09 14:56:00,
2013-05-09 07:58:00,62.2,57.3,30.07,WSW,258,0.0,1.0,84,0.00,,,0.00,Wunderground v.1.15,2013-05-09 14:58:00,
2013-05-09 08:00:00,62.3,57.1,30.07,WSW,258,0.0,1.0,83,0.00,,,0.00,Wunderground v.1.15,2013-05-09 15:00:00,
2013-05-09 08:02:00,62.3,57.1,30.07,WSW,258,0.0,1.0,83,0.00,,,0.00,Wunderground v.1.15,2013-05-09 15:02:00,
2013-05-09 08:06:00,62.3,57.1,30.07,WSW,258,0.0,1.0,83,0.00,,,0.00,Wunderground v.1.15,2013-05-09 15:06:00,
2013-05-09 08:08:00,62.3,57.1,30.08,WSW,258,0.0,1.0,83,0.00,,,0.00,Wunderground v.1.15,2013-05-09 15:08:00,
2013-05-09 08:12:00,62.3,57.1,30.08,WSW,258,0.0,0.0,83,0.00,,,0.00,Wunderground v.1.15,2013-05-09 15:12:00,
2013-05-09 08:14:00,62.3,57.1,30.07,WSW,258,0.0,0.0,83,0.00,,,0.00,Wunderground v.1.15,2013-05-09 15:14:00,
2013-05-09 08:18:00,62.3,57.1,30.07,WSW,258,0.0,0.0,83,0.00,,,0.00,Wunderground v.1.15,2013-05-09 15:18:00,
2013-05-09 08:20:00,62.4,56.8,30.08,WSW,258,0.0,0.0,82,0.00,,,0.00,Wunderground v.1.15,2013-05-09 15:20:00,
2013-05-09 08:22:00,62.4,56.8,30.07,WSW,258,0.0,0.0,82,0.00,,,0.00,Wunderground v.1.15,2013-05-09 15:22:00,
2013-05-09 08:24:00,62.6,57.0,30.07,WSW,258,0.0,0.0,82,0.00,,,0.00,Wunderground v.1.15,2013-05-09 15:24:00,
2013-05-09 08:26:00,62.7,57.1,30.07,WSW,258,0.0,0.0,82,0.00,,,0.00,Wunderground v.1.15,2013-05-09 15:26:00,
2013-05-09 08:28:00,62.7,56.8,30.07,WSW,258,0.0,0.0,81,0.00,,,0.00,Wunderground v.1.15,2013-05-09 15:28:00,
2013-05-09 08:30:00,62.8,56.9,30.07,WSW,258,0.0,0.0,81,0.00,,,0.00,Wunderground v.1.15,2013-05-09 15:30:00,
2013-05-09 08:36:00,63.0,57.1,30.08,WSW,258,0.0,0.0,81,0.00,,,0.00,Wunderground v.1.15,2013-05-09 15:36:00,
2013-05-09 08:38:00,63.0,57.1,30.08,WSW,258,0.0,0.0,81,0.00,,,0.00,Wunderground v.1.15,2013-05-09 15:38:00,
2013-05-09 08:40:00,63.1,57.2,30.08,WSW,257,0.0,2.0,81,0.00,,,0.00,Wunderground v.1.15,2013-05-09 15:40:00,
2013-05-09 08:42:00,63.2,57.3,30.07,WSW,257,0.0,2.0,81,0.00,,,0.00,Wunderground v.1.15,2013-05-09 15:42:00,
2013-05-09 08:46:00,63.5,57.2,30.07,WSW,257,0.0,2.0,80,0.00,,,0.00,Wunderground v.1.15,2013-05-09 15:46:00,
2013-05-09 08:48:00,63.6,57.3,30.08,WSW,257,0.0,2.0,80,0.00,,,0.00,Wunderground v.1.15,2013-05-09 15:48:00,
2013-05-09 08:54:00,64.0,57.4,30.08,WSW,257,0.0,0.0,79,0.00,,,0.00,Wunderground v.1.15,2013-05-09 15:54:00,
2013-05-09 08:56:00,64.1,57.5,30.07,WSW,257,0.0,0.0,79,0.00,,,0.00,Wunderground v.1.15,2013-05-09 15:56:00,
2013-05-09 09:00:00,64.6,57.6,30.08,WSW,257,0.0,0.0,78,0.00,,,0.00,Wunderground v.1.15,2013-05-09 16:00:00,
2013-05-09 09:02:00,64.8,57.8,30.08,WSW,256,0.0,0.0,78,0.00,,,0.00,Wunderground v.1.15,2013-05-09 16:02:00,
2013-05-09 09:04:00,65.1,57.7,30.08,NE,53,0.0,3.0,77,0.00,,,0.00,Wunderground v.1.15,2013-05-09 16:04:00,
2013-05-09 09:08:00,65.3,57.5,30.07,ENE,70,1.0,5.0,76,0.00,,,0.00,Wunderground v.1.15,2013-05-09 16:08:00,
2013-05-09 09:10:00,65.5,57.7,30.08,SSW,194,2.0,4.0,76,0.00,,,0.00,Wunderground v.1.15,2013-05-09 16:10:00,
2013-05-09 09:12:00,65.5,57.7,30.07,SSW,194,2.0,4.0,76,0.00,,,0.00,Wunderground v.1.15,2013-05-09 16:12:00,
2013-05-09 09:18:00,65.3,57.5,30.07,SSW,197,2.0,4.0,76,0.00,,,0.00,Wunderground v.1.15,2013-05-09 16:18:00,
2013-05-09 09:20:00,65.1,57.3,30.08,SSW,198,1.0,1.0,76,0.00,,,0.00,Wunderground v.1.15,2013-05-09 16:20:00,
2013-05-09 09:26:00,64.8,57.4,30.08,SSW,208,1.0,2.0,77,0.00,,,0.00,Wunderground v.1.15,2013-05-09 16:26:00,
2013-05-09 09:28:00,64.8,57.4,30.08,SSW,213,1.0,3.0,77,0.00,,,0.00,Wunderground v.1.15,2013-05-09 16:28:00,
2013-05-09 09:32:00,64.6,57.2,30.08,SSW,196,1.0,1.0,77,0.00,,,0.00,Wunderground v.1.15,2013-05-09 16:32:00,
2013-05-09 09:34:00,64.7,57.7,30.08,SSW,196,1.0,1.0,78,0.00,,,0.00,Wunderground v.1.15,2013-05-09 16:34:00,
2013-05-09 09:38:00,65.2,58.2,30.07,SSE,161,1.0,4.0,78,0.00,,,0.00,Wunderground v.1.15,2013-05-09 16:38:00,
2013-05-09 09:40:00,65.6,57.8,30.07,South,170,1.0,1.0,76,0.00,,,0.00,Wunderground v.1.15,2013-05-09 16:40:00,
2013-05-09 09:44:00,66.1,58.7,30.07,South,170,1.0,1.0,77,0.00,,,0.00,Wunderground v.1.15,2013-05-09 16:44:00,
2013-05-09 09:46:00,66.4,58.2,30.07,SW,219,2.0,3.0,75,0.00,,,0.00,Wunderground v.1.15,2013-05-09 16:46:00,
2013-05-09 09:48:00,66.5,58.3,30.07,SW,230,2.0,4.0,75,0.00,,,0.00,Wunderground v.1.15,2013-05-09 16:48:00,
2013-05-09 09:50:00,66.6,58.1,30.07,South,179,3.0,3.0,74,0.00,,,0.00,Wunderground v.1.15,2013-05-09 16:50:00,
2013-05-09 09:52:00,66.6,58.1,30.07,SSE,166,3.0,3.0,74,0.00,,,0.00,Wunderground v.1.15,2013-05-09 16:52:00,
2013-05-09 09:56:00,66.8,57.9,30.07,South,182,4.0,4.0,73,0.00,,,0.00,Wunderground v.1.15,2013-05-09 16:56:00,
2013-05-09 09:58:00,66.8,57.9,30.07,SSW,207,3.0,4.0,73,0.00,,,0.00,Wunderground v.1.15,2013-05-09 16:58:00,
2013-05-09 10:02:00,67.0,58.1,30.07,West,278,2.0,3.0,73,0.00,,,0.00,Wunderground v.1.15,2013-05-09 17:02:00,
2013-05-09 10:04:00,67.1,58.2,30.07,SW,229,2.0,3.0,73,0.00,,,0.00,Wunderground v.1.15,2013-05-09 17:04:00,
2013-05-09 10:06:00,67.1,58.2,30.07,SSW,192,2.0,3.0,73,0.00,,,0.00,Wunderground v.1.15,2013-05-09 17:06:00,
2013-05-09 10:08:00,67.0,58.1,30.07,South,190,2.0,3.0,73,0.00,,,0.00,Wunderground v.1.15,2013-05-09 17:08:00,
2013-05-09 10:10:00,67.1,58.2,30.07,SW,223,3.0,4.0,73,0.00,,,0.00,Wunderground v.1.15,2013-05-09 17:10:00,
2013-05-09 10:12:00,67.1,57.8,30.07,SW,225,3.0,7.0,72,0.00,,,0.00,Wunderground v.1.15,2013-05-09 17:12:00,
2013-05-09 10:14:00,66.9,57.6,30.07,South,185,3.0,7.0,72,0.00,,,0.00,Wunderground v.1.15,2013-05-09 17:14:00,
2013-05-09 10:18:00,66.7,57.8,30.07,SW,232,3.0,7.0,73,0.00,,,0.00,Wunderground v.1.15,2013-05-09 17:18:00,
2013-05-09 10:20:00,66.6,57.7,30.07,South,184,3.0,3.0,73,0.00,,,0.00,Wunderground v.1.15,2013-05-09 17:20:00,
2013-05-09 10:24:00,66.8,57.9,30.07,SSE,161,2.0,4.0,73,0.00,,,0.00,Wunderground v.1.15,2013-05-09 17:24:00,
2013-05-09 10:26:00,67.0,57.7,30.07,SSW,203,3.0,7.0,72,0.00,,,0.00,Wunderground v.1.15,2013-05-09 17:26:00,
2013-05-09 10:28:00,67.1,57.8,30.07,SW,232,3.0,7.0,72,0.00,,,0.00,Wunderground v.1.15,2013-05-09 17:28:00,
2013-05-09 10:32:00,66.8,57.5,30.07,SSW,194,4.0,4.0,72,0.00,,,0.00,Wunderground v.1.15,2013-05-09 17:32:00,
2013-05-09 10:34:00,66.7,57.4,30.07,West,273,4.0,4.0,72,0.00,,,0.00,Wunderground v.1.15,2013-05-09 17:34:00,
2013-05-09 10:36:00,66.6,57.3,30.07,SW,222,4.0,4.0,72,0.00,,,0.00,Wunderground v.1.15,2013-05-09 17:36:00,
2013-05-09 10:38:00,66.6,57.3,30.07,SW,217,5.0,5.0,72,0.00,,,0.00,Wunderground v.1.15,2013-05-09 17:38:00,
2013-05-09 10:40:00,66.5,57.2,30.07,South,172,4.0,6.0,72,0.00,,,0.00,Wunderground v.1.15,2013-05-09 17:40:00,
2013-05-09 10:46:00,66.5,57.2,30.07,South,171,4.0,7.0,72,0.00,,,0.00,Wunderground v.1.15,2013-05-09 17:46:00,
2013-05-09 10:48:00,66.6,57.3,30.07,SW,236,4.0,7.0,72,0.00,,,0.00,Wunderground v.1.15,2013-05-09 17:48:00,
2013-05-09 10:54:00,66.7,57.0,30.07,SSW,205,4.0,4.0,71,0.00,,,0.00,Wunderground v.1.15,2013-05-09 17:54:00,
2013-05-09 10:56:00,66.8,57.5,30.07,South,180,5.0,9.0,72,0.00,,,0.00,Wunderground v.1.15,2013-05-09 17:56:00,
2013-05-09 11:00:00,66.7,56.6,30.07,SSW,197,5.0,5.0,70,0.00,,,0.00,Wunderground v.1.15,2013-05-09 18:00:00,
2013-05-09 11:06:00,66.9,56.8,30.07,SW,227,5.0,6.0,70,0.00,,,0.00,Wunderground v.1.15,2013-05-09 18:06:00,
2013-05-09 11:08:00,67.0,57.3,30.07,South,180,4.0,8.0,71,0.00,,,0.00,Wunderground v.1.15,2013-05-09 18:08:00,
2013-05-09 11:12:00,66.9,56.8,30.07,WSW,238,4.0,4.0,70,0.00,,,0.00,Wunderground v.1.15,2013-05-09 18:12:00,
2013-05-09 11:14:00,66.9,57.2,30.07,South,176,4.0,4.0,71,0.00,,,0.00,Wunderground v.1.15,2013-05-09 18:14:00,
2013-05-09 11:18:00,67.0,56.9,30.07,WSW,239,4.0,6.0,70,0.00,,,0.00,Wunderground v.1.15,2013-05-09 18:18:00,
2013-05-09 11:20:00,66.8,56.7,30.07,South,187,4.0,5.0,70,0.00,,,0.00,Wunderground v.1.15,2013-05-09 18:20:00,
2013-05-09 11:22:00,66.8,57.1,30.07,SW,225,4.0,5.0,71,0.00,,,0.00,Wunderground v.1.15,2013-05-09 18:22:00,
2013-05-09 11:24:00,66.8,57.1,30.07,South,183,4.0,5.0,71,0.00,,,0.00,Wunderground v.1.15,2013-05-09 18:24:00,
2013-05-09 11:28:00,67.3,57.2,30.07,South,187,4.0,5.0,70,0.00,,,0.00,Wunderground v.1.15,2013-05-09 18:28:00,
2013-05-09 11:30:00,67.5,57.0,30.07,WSW,238,4.0,6.0,69,0.00,,,0.00,Wunderground v.1.15,2013-05-09 18:30:00,
2013-05-09 11:34:00,67.4,56.9,30.07,South,189,5.0,6.0,69,0.00,,,0.00,Wunderground v.1.15,2013-05-09 18:34:00,
2013-05-09 11:38:00,67.2,56.7,30.07,SW,232,5.0,6.0,69,0.00,,,0.00,Wunderground v.1.15,2013-05-09 18:38:00,
2013-05-09 11:40:00,66.9,56.4,30.07,WSW,244,5.0,5.0,69,0.00,,,0.00,Wunderground v.1.15,2013-05-09 18:40:00,
2013-05-09 11:42:00,67.0,57.3,30.07,SW,214,5.0,5.0,71,0.00,,,0.00,Wunderground v.1.15,2013-05-09 18:42:00,
2013-05-09 11:48:00,67.4,57.3,30.07,South,184,4.0,8.0,70,0.00,,,0.00,Wunderground v.1.15,2013-05-09 18:48:00,
2013-05-09 11:52:00,67.7,56.8,30.07,SSE,165,5.0,9.0,68,0.00,,,0.00,Wunderground v.1.15,2013-05-09 18:52:00,
2013-05-09 11:54:00,67.9,57.4,30.07,SW,214,5.0,9.0,69,0.00,,,0.00,Wunderground v.1.15,2013-05-09 18:54:00,
2013-05-09 11:58:00,68.0,57.4,30.07,SSW,197,5.0,9.0,69,0.00,,,0.00,Wunderground v.1.15,2013-05-09 18:58:00,
2013-05-09 12:02:00,67.9,56.9,30.07,South,186,5.0,5.0,68,0.00,,,0.00,Wunderground v.1.15,2013-05-09 19:02:00,
2013-05-09 12:04:00,68.0,57.4,30.07,WSW,237,5.0,6.0,69,0.00,,,0.00,Wunderground v.1.15,2013-05-09 19:04:00,
2013-05-09 12:08:00,68.2,57.2,30.07,SW,217,5.0,6.0,68,0.00,,,0.00,Wunderground v.1.15,2013-05-09 19:08:00,
2013-05-09 12:12:00,68.2,57.6,30.07,WSW,243,5.0,5.0,69,0.00,,,0.00,Wunderground v.1.15,2013-05-09 19:12:00,
2013-05-09 12:14:00,68.2,56.8,30.07,SSW,213,5.0,5.0,67,0.00,,,0.00,Wunderground v.1.15,2013-05-09 19:14:00,
2013-05-09 12:16:00,68.2,56.8,30.07,SSW,204,5.0,5.0,67,0.00,,,0.00,Wunderground v.1.15,2013-05-09 19:16:00,
2013-05-09 12:18:00,68.4,57.4,30.06,WSW,246,4.0,5.0,68,0.00,,,0.00,Wunderground v.1.15,2013-05-09 19:18:00,
2013-05-09 12:22:00,68.4,57.4,30.07,South,183,4.0,5.0,68,0.00,,,0.00,Wunderground v.1.15,2013-05-09 19:22:00,
2013-05-09 12:24:00,68.5,57.1,30.06,WSW,257,4.0,5.0,67,0.00,,,0.00,Wunderground v.1.15,2013-05-09 19:24:00,
2013-05-09 12:26:00,68.5,57.1,30.06,SSE,157,4.0,6.0,67,0.00,,,0.00,Wunderground v.1.15,2013-05-09 19:26:00,
2013-05-09 12:28:00,68.6,57.2,30.06,SSW,211,4.0,6.0,67,0.00,,,0.00,Wunderground v.1.15,2013-05-09 19:28:00,
2013-05-09 12:32:00,68.4,56.6,30.06,SW,234,5.0,7.0,66,0.00,,,0.00,Wunderground v.1.15,2013-05-09 19:32:00,
2013-05-09 12:36:00,68.1,57.1,30.06,SSW,209,5.0,7.0,68,0.00,,,0.00,Wunderground v.1.15,2013-05-09 19:36:00,
2013-05-09 12:40:00,68.0,56.6,30.06,WSW,240,5.0,6.0,67,0.00,,,0.00,Wunderground v.1.15,2013-05-09 19:40:00,
2013-05-09 12:42:00,68.0,56.6,30.06,SW,230,5.0,6.0,67,0.00,,,0.00,Wunderground v.1.15,2013-05-09 19:42:00,
2013-05-09 12:44:00,67.9,56.1,30.06,SSW,200,6.0,6.0,66,0.00,,,0.00,Wunderground v.1.15,2013-05-09 19:44:00,
2013-05-09 12:48:00,67.9,56.1,30.06,South,171,6.0,6.0,66,0.00,,,0.00,Wunderground v.1.15,2013-05-09 19:48:00,
2013-05-09 12:50:00,67.8,56.0,30.06,SW,217,6.0,6.0,66,0.00,,,0.00,Wunderground v.1.15,2013-05-09 19:50:00,
2013-05-09 12:52:00,67.8,56.4,30.06,SSW,200,6.0,6.0,67,0.00,,,0.00,Wunderground v.1.15,2013-05-09 19:52:00,
2013-05-09 12:56:00,67.9,56.5,30.06,South,190,6.0,6.0,67,0.00,,,0.00,Wunderground v.1.15,2013-05-09 19:56:00,
2013-05-09 13:00:00,68.0,56.6,30.06,SW,226,5.0,7.0,67,0.00,,,0.00,Wunderground v.1.15,2013-05-09 20:00:00,
2013-05-09 13:02:00,68.1,57.1,30.06,WSW,238,5.0,7.0,68,0.00,,,0.00,Wunderground v.1.15,2013-05-09 20:02:00,
2013-05-09 13:04:00,67.9,56.9,30.06,WSW,239,6.0,7.0,68,0.00,,,0.00,Wunderground v.1.15,2013-05-09 20:04:00,
2013-05-09 13:08:00,67.5,57.4,30.06,SW,221,6.0,11.0,70,0.00,,,0.00,Wunderground v.1.15,2013-05-09 20:08:00,
2013-05-09 13:12:00,67.6,57.5,30.06,SW,223,6.0,7.0,70,0.00,,,0.00,Wunderground v.1.15,2013-05-09 20:12:00,
2013-05-09 13:18:00,67.4,56.9,30.05,SW,234,6.0,7.0,69,0.00,,,0.00,Wunderground v.1.15,2013-05-09 20:18:00,
2013-05-09 13:20:00,67.4,56.9,30.05,SW,236,6.0,6.0,69,0.00,,,0.00,Wunderground v.1.15,2013-05-09 20:20:00,
2013-05-09 13:26:00,67.6,57.1,30.05,SW,229,6.0,7.0,69,0.00,,,0.00,Wunderground v.1.15,2013-05-09 20:26:00,
2013-05-09 13:28:00,67.7,57.2,30.05,SW,235,6.0,7.0,69,0.00,,,0.00,Wunderground v.1.15,2013-05-09 20:28:00,
2013-05-09 13:30:00,67.7,57.6,30.05,WNW,282,6.0,6.0,70,0.00,,,0.00,Wunderground v.1.15,2013-05-09 20:30:00,
2013-05-09 13:32:00,67.7,57.6,30.05,SW,224,6.0,6.0,70,0.00,,,0.00,Wunderground v.1.15,2013-05-09 20:32:00,
2013-05-09 13:36:00,67.8,57.7,30.05,SW,217,6.0,6.0,70,0.00,,,0.00,Wunderground v.1.15,2013-05-09 20:36:00,
2013-05-09 13:38:00,68.0,57.8,30.05,SW,225,6.0,7.0,70,0.00,,,0.00,Wunderground v.1.15,2013-05-09 20:38:00,
2013-05-09 13:42:00,68.1,57.5,30.05,SW,221,6.0,10.0,69,0.00,,,0.00,Wunderground v.1.15,2013-05-09 20:42:00,
2013-05-09 13:44:00,68.0,57.8,30.05,SW,229,6.0,10.0,70,0.00,,,0.00,Wunderground v.1.15,2013-05-09 20:44:00,
2013-05-09 13:46:00,68.0,57.8,30.05,SSW,205,7.0,16.0,70,0.00,,,0.00,Wunderground v.1.15,2013-05-09 20:46:00,
2013-05-09 13:50:00,67.8,57.7,30.05,WSW,254,7.0,7.0,70,0.00,,,0.00,Wunderground v.1.15,2013-05-09 20:50:00,
2013-05-09 13:52:00,67.7,57.6,30.05,South,190,8.0,9.0,70,0.00,,,0.00,Wunderground v.1.15,2013-05-09 20:52:00,
2013-05-09 13:56:00,67.7,58.0,30.05,SSW,212,7.0,9.0,71,0.00,,,0.00,Wunderground v.1.15,2013-05-09 20:56:00,
2013-05-09 13:58:00,67.7,58.0,30.05,SW,224,7.0,9.0,71,0.00,,,0.00,Wunderground v.1.15,2013-05-09 20:58:00,
2013-05-09 14:00:00,67.7,57.6,30.05,SW,220,7.0,7.0,70,0.00,,,0.00,Wunderground v.1.15,2013-05-09 21:00:00,
2013-05-09 14:02:00,67.7,58.0,30.05,SW,234,6.0,7.0,71,0.00,,,0.00,Wunderground v.1.15,2013-05-09 21:02:00,
2013-05-09 14:04:00,67.8,58.1,30.05,WSW,252,6.0,7.0,71,0.00,,,0.00,Wunderground v.1.15,2013-05-09 21:04:00,
2013-05-09 14:08:00,67.6,57.5,30.05,South,178,7.0,9.0,70,0.00,,,0.00,Wunderground v.1.15,2013-05-09 21:08:00,
2013-05-09 14:10:00,67.5,57.8,30.05,South,186,6.0,11.0,71,0.00,,,0.00,Wunderground v.1.15,2013-05-09 21:10:00,
2013-05-09 14:12:00,67.5,57.4,30.05,SSE,163,7.0,11.0,70,0.00,,,0.00,Wunderground v.1.15,2013-05-09 21:12:00,
2013-05-09 14:14:00,67.5,57.8,30.05,South,176,7.0,11.0,71,0.00,,,0.00,Wunderground v.1.15,2013-05-09 21:14:00,
2013-05-09 14:18:00,67.7,57.6,30.05,SW,225,7.0,11.0,70,0.00,,,0.00,Wunderground v.1.15,2013-05-09 21:18:00,
2013-05-09 14:20:00,67.5,57.8,30.04,South,180,7.0,9.0,71,0.00,,,0.00,Wunderground v.1.15,2013-05-09 21:20:00,
2013-05-09 14:22:00,67.3,57.6,30.04,SSW,205,7.0,9.0,71,0.00,,,0.00,Wunderground v.1.15,2013-05-09 21:22:00,
2013-05-09 14:26:00,67.5,57.8,30.04,SSW,194,7.0,10.0,71,0.00,,,0.00,Wunderground v.1.15,2013-05-09 21:26:00,
2013-05-09 14:30:00,67.5,57.8,30.04,WSW,243,7.0,10.0,71,0.00,,,0.00,Wunderground v.1.15,2013-05-09 21:30:00,
2013-05-09 14:34:00,67.3,57.6,30.05,SW,236,7.0,11.0,71,0.00,,,0.00,Wunderground v.1.15,2013-05-09 21:34:00,
2013-05-09 14:36:00,67.1,57.4,30.05,SW,234,8.0,11.0,71,0.00,,,0.00,Wunderground v.1.15,2013-05-09 21:36:00,
2013-05-09 14:38:00,67.0,57.3,30.05,SW,236,8.0,11.0,71,0.00,,,0.00,Wunderground v.1.15,2013-05-09 21:38:00,
2013-05-09 14:40:00,67.1,58.2,30.05,WSW,241,8.0,8.0,73,0.00,,,0.00,Wunderground v.1.15,2013-05-09 21:40:00,
2013-05-09 14:42:00,67.2,58.2,30.04,SSW,210,7.0,8.0,73,0.00,,,0.00,Wunderground v.1.15,2013-05-09 21:42:00,
2013-05-09 14:44:00,67.6,58.2,30.04,SW,235,7.0,8.0,72,0.00,,,0.00,Wunderground v.1.15,2013-05-09 21:44:00,
2013-05-09 14:46:00,67.7,58.0,30.04,SSW,213,7.0,8.0,71,0.00,,,0.00,Wunderground v.1.15,2013-05-09 21:46:00,
2013-05-09 14:50:00,67.2,57.5,30.04,South,178,6.0,9.0,71,0.00,,,0.00,Wunderground v.1.15,2013-05-09 21:50:00,
2013-05-09 14:52:00,67.2,57.5,30.04,SW,216,6.0,10.0,71,0.00,,,0.00,Wunderground v.1.15,2013-05-09 21:52:00,
2013-05-09 14:54:00,67.2,57.9,30.04,SW,235,7.0,10.0,72,0.00,,,0.00,Wunderground v.1.15,2013-05-09 21:54:00,
2013-05-09 14:56:00,67.2,57.9,30.04,South,182,7.0,10.0,72,0.00,,,0.00,Wunderground v.1.15,2013-05-09 21:56:00,
2013-05-09 14:58:00,67.4,58.1,30.04,SSW,211,6.0,10.0,72,0.00,,,0.00,Wunderground v.1.15,2013-05-09 21:58:00,
2013-05-09 15:00:00,67.6,57.9,30.04,South,177,6.0,6.0,71,0.00,,,0.00,Wunderground v.1.15,2013-05-09 22:00:00,
2013-05-09 15:02:00,67.6,58.2,30.04,SW,232,6.0,6.0,72,0.00,,,0.00,Wunderground v.1.15,2013-05-09 22:02:00,
2013-05-09 15:04:00,67.6,57.9,30.04,SSW,201,5.0,6.0,71,0.00,,,0.00,Wunderground v.1.15,2013-05-09 22:04:00,
2013-05-09 15:06:00,67.6,58.2,30.04,SSW,200,5.0,6.0,72,0.00,,,0.00,Wunderground v.1.15,2013-05-09 22:06:00,
2013-05-09 15:08:00,67.6,57.9,30.04,South,173,5.0,6.0,71,0.00,,,0.00,Wunderground v.1.15,2013-05-09 22:08:00,
2013-05-09 15:12:00,67.4,57.7,30.04,WSW,240,5.0,7.0,71,0.00,,,0.00,Wunderground v.1.15,2013-05-09 22:12:00,
2013-05-09 15:14:00,67.2,57.5,30.04,South,190,5.0,7.0,71,0.00,,,0.00,Wunderground v.1.15,2013-05-09 22:14:00,
2013-05-09 15:18:00,66.8,57.5,30.04,SSW,212,6.0,7.0,72,0.00,,,0.00,Wunderground v.1.15,2013-05-09 22:18:00,
2013-05-09 15:22:00,66.6,57.7,30.04,SW,230,5.0,7.0,73,0.00,,,0.00,Wunderground v.1.15,2013-05-09 22:22:00,
2013-05-09 15:24:00,66.5,57.6,30.03,SW,228,5.0,7.0,73,0.00,,,0.00,Wunderground v.1.15,2013-05-09 22:24:00,
2013-05-09 15:26:00,66.5,57.6,30.03,SW,236,5.0,7.0,73,0.00,,,0.00,Wunderground v.1.15,2013-05-09 22:26:00,
2013-05-09 15:28:00,66.4,57.5,30.03,SW,217,5.0,7.0,73,0.00,,,0.00,Wunderground v.1.15,2013-05-09 22:28:00,
2013-05-09 15:30:00,66.4,56.7,30.04,SSW,197,4.0,4.0,71,0.00,,,0.00,Wunderground v.1.15,2013-05-09 22:30:00,
2013-05-09 15:34:00,66.0,57.1,30.04,SW,234,5.0,6.0,73,0.00,,,0.00,Wunderground v.1.15,2013-05-09 22:34:00,
2013-05-09 15:36:00,65.8,56.9,30.04,SW,229,5.0,6.0,73,0.00,,,0.00,Wunderground v.1.15,2013-05-09 22:36:00,
2013-05-09 15:38:00,65.7,56.8,30.04,SW,221,5.0,6.0,73,0.00,,,0.00,Wunderground v.1.15,2013-05-09 22:38:00,
2013-05-09 15:40:00,65.6,56.7,30.04,SW,229,5.0,5.0,73,0.00,,,0.00,Wunderground v.1.15,2013-05-09 22:40:00,
2013-05-09 15:42:00,65.6,56.7,30.04,SSW,198,4.0,5.0,73,0.00,,,0.00,Wunderground v.1.15,2013-05-09 22:42:00,
2013-05-09 15:46:00,65.7,56.4,30.03,SW,219,4.0,6.0,72,0.00,,,0.00,Wunderground v.1.15,2013-05-09 22:46:00,
2013-05-09 15:48:00,65.6,56.3,30.03,SSW,196,5.0,9.0,72,0.00,,,0.00,Wunderground v.1.15,2013-05-09 22:48:00,
2013-05-09 15:50:00,65.4,56.5,30.03,SW,221,5.0,5.0,73,0.00,,,0.00,Wunderground v.1.15,2013-05-09 22:50:00,
2013-05-09 15:52:00,65.3,56.4,30.03,SW,215,6.0,10.0,73,0.00,,,0.00,Wunderground v.1.15,2013-05-09 22:52:00,
2013-05-09 15:54:00,65.2,56.3,30.03,SW,219,6.0,10.0,73,0.00,,,0.00,Wunderground v.1.15,2013-05-09 22:54:00,
2013-05-09 15:58:00,65.2,56.7,30.03,SSW,201,6.0,10.0,74,0.00,,,0.00,Wunderground v.1.15,2013-05-09 22:58:00,
2013-05-09 16:00:00,65.2,57.1,30.02,West,275,6.0,6.0,75,0.00,,,0.00,Wunderground v.1.15,2013-05-09 23:00:00,
2013-05-09 16:02:00,65.3,57.2,30.03,SSW,197,5.0,6.0,75,0.00,,,0.00,Wunderground v.1.15,2013-05-09 23:02:00,
2013-05-09 16:04:00,65.3,56.8,30.03,WSW,246,5.0,6.0,74,0.00,,,0.00,Wunderground v.1.15,2013-05-09 23:04:00,
2013-05-09 16:06:00,65.4,56.5,30.02,WSW,244,5.0,6.0,73,0.00,,,0.00,Wunderground v.1.15,2013-05-09 23:06:00,
2013-05-09 16:10:00,65.5,56.6,30.03,WSW,240,4.0,6.0,73,0.00,,,0.00,Wunderground v.1.15,2013-05-09 23:10:00,
2013-05-09 16:18:00,65.9,57.0,30.02,SSW,198,5.0,6.0,73,0.00,,,0.00,Wunderground v.1.15,2013-05-09 23:18:00,
2013-05-09 16:20:00,66.1,56.8,30.02,SSE,154,5.0,5.0,72,0.00,,,0.00,Wunderground v.1.15,2013-05-09 23:20:00,
2013-05-09 16:24:00,66.3,57.4,30.02,South,173,4.0,5.0,73,0.00,,,0.00,Wunderground v.1.15,2013-05-09 23:24:00,
2013-05-09 16:26:00,66.3,57.4,30.02,SSW,213,4.0,5.0,73,0.00,,,0.00,Wunderground v.1.15,2013-05-09 23:26:00,
2013-05-09 16:28:00,66.3,57.8,30.02,WSW,241,4.0,5.0,74,0.00,,,0.00,Wunderground v.1.15,2013-05-09 23:28:00,
2013-05-09 16:30:00,66.2,57.7,30.02,SW,221,4.0,4.0,74,0.00,,,0.00,Wunderground v.1.15,2013-05-09 23:30:00,
2013-05-09 16:34:00,66.2,57.7,30.01,WSW,237,4.0,5.0,74,0.00,,,0.00,Wunderground v.1.15,2013-05-09 23:34:00,
2013-05-09 16:36:00,66.2,57.7,30.01,SSW,206,4.0,5.0,74,0.00,,,0.00,Wunderground v.1.15,2013-05-09 23:36:00,
2013-05-09 16:40:00,66.3,58.1,30.01,SW,236,4.0,4.0,75,0.00,,,0.00,Wunderground v.1.15,2013-05-09 23:40:00,
2013-05-09 16:42:00,66.4,58.2,30.01,SSW,205,4.0,4.0,75,0.00,,,0.00,Wunderground v.1.15,2013-05-09 23:42:00,
2013-05-09 16:44:00,66.4,57.9,30.01,SW,227,4.0,4.0,74,0.00,,,0.00,Wunderground v.1.15,2013-05-09 23:44:00,
2013-05-09 16:48:00,66.6,58.4,30.01,SSW,193,3.0,7.0,75,0.00,,,0.00,Wunderground v.1.15,2013-05-09 23:48:00,
2013-05-09 16:50:00,66.7,58.1,30.01,South,171,4.0,4.0,74,0.00,,,0.00,Wunderground v.1.15,2013-05-09 23:50:00,
2013-05-09 16:56:00,66.8,58.2,30.01,SSW,211,3.0,4.0,74,0.00,,,0.00,Wunderground v.1.15,2013-05-09 23:56:00,
2013-05-09 16:58:00,66.9,58.0,30.01,SW,229,3.0,4.0,73,0.00,,,0.00,Wunderground v.1.15,2013-05-09 23:58:00,
2013-05-09 17:02:00,67.2,58.2,30.01,SSW,213,3.0,5.0,73,0.00,,,0.00,Wunderground v.1.15,2013-05-10 00:02:00,
2013-05-09 17:04:00,67.5,58.5,30.01,SSW,196,3.0,6.0,73,0.00,,,0.00,Wunderground v.1.15,2013-05-10 00:04:00,
2013-05-09 17:10:00,67.7,58.3,30.02,SSW,205,3.0,3.0,72,0.00,,,0.00,Wunderground v.1.15,2013-05-10 00:10:00,
2013-05-09 17:12:00,67.7,58.3,30.02,SSW,207,3.0,3.0,72,0.00,,,0.00,Wunderground v.1.15,2013-05-10 00:12:00,
2013-05-09 17:14:00,67.6,58.2,30.02,SSW,207,3.0,3.0,72,0.00,,,0.00,Wunderground v.1.15,2013-05-10 00:14:00,
2013-05-09 17:18:00,67.4,57.7,30.01,South,184,3.0,4.0,71,0.00,,,0.00,Wunderground v.1.15,2013-05-10 00:18:00,
2013-05-09 17:20:00,67.2,57.9,30.02,South,177,3.0,3.0,72,0.00,,,0.00,Wunderground v.1.15,2013-05-10 00:20:00,
2013-05-09 17:22:00,67.1,58.2,30.02,SSW,207,3.0,3.0,73,0.00,,,0.00,Wunderground v.1.15,2013-05-10 00:22:00,
2013-05-09 17:26:00,67.0,58.1,30.02,South,190,3.0,3.0,73,0.00,,,0.00,Wunderground v.1.15,2013-05-10 00:26:00,
2013-05-09 17:28:00,67.0,57.7,30.02,SSW,195,2.0,3.0,72,0.00,,,0.00,Wunderground v.1.15,2013-05-10 00:28:00,
2013-05-09 17:30:00,66.9,57.6,30.02,South,188,2.0,2.0,72,0.00,,,0.00,Wunderground v.1.15,2013-05-10 00:30:00,
2013-05-09 17:32:00,66.9,58.0,30.02,South,189,2.0,2.0,73,0.00,,,0.00,Wunderground v.1.15,2013-05-10 00:32:00,
2013-05-09 17:34:00,66.8,57.9,30.02,SSW,203,2.0,2.0,73,0.00,,,0.00,Wunderground v.1.15,2013-05-10 00:34:00,
2013-05-09 17:36:00,66.8,57.9,30.02,SSW,202,2.0,2.0,73,0.00,,,0.00,Wunderground v.1.15,2013-05-10 00:36:00,
2013-05-09 17:40:00,66.7,57.8,30.02,SW,234,2.0,3.0,73,0.00,,,0.00,Wunderground v.1.15,2013-05-10 00:40:00,
2013-05-09 17:42:00,66.7,57.8,30.02,SW,233,3.0,3.0,73,0.00,,,0.00,Wunderground v.1.15,2013-05-10 00:42:00,
2013-05-09 17:48:00,66.7,57.8,30.02,SW,219,3.0,3.0,73,0.00,,,0.00,Wunderground v.1.15,2013-05-10 00:48:00,
2013-05-09 17:50:00,66.7,57.8,30.02,South,180,2.0,5.0,73,0.00,,,0.00,Wunderground v.1.15,2013-05-10 00:50:00,
2013-05-09 17:52:00,66.6,57.7,30.02,SSW,208,2.0,5.0,73,0.00,,,0.00,Wunderground v.1.15,2013-05-10 00:52:00,
2013-05-09 17:54:00,66.5,57.6,30.02,SSW,202,2.0,5.0,73,0.00,,,0.00,Wunderground v.1.15,2013-05-10 00:54:00,
2013-05-09 17:58:00,66.4,57.5,30.01,SW,223,3.0,5.0,73,0.00,,,0.00,Wunderground v.1.15,2013-05-10 00:58:00,
2013-05-09 18:00:00,66.2,57.7,30.01,SW,224,3.0,3.0,74,0.00,,,0.00,Wunderground v.1.15,2013-05-10 01:00:00,
2013-05-09 18:06:00,66.0,57.5,30.01,SSW,196,3.0,5.0,74,0.00,,,0.00,Wunderground v.1.15,2013-05-10 01:06:00,
2013-05-09 18:08:00,65.9,57.4,30.01,South,173,3.0,5.0,74,0.00,,,0.00,Wunderground v.1.15,2013-05-10 01:08:00,
2013-05-09 18:10:00,65.8,57.7,30.02,South,185,3.0,3.0,75,0.00,,,0.00,Wunderground v.1.15,2013-05-10 01:10:00,
2013-05-09 18:12:00,65.7,57.6,30.02,South,185,3.0,3.0,75,0.00,,,0.00,Wunderground v.1.15,2013-05-10 01:12:00,
2013-05-09 18:14:00,65.6,57.5,30.02,South,190,3.0,3.0,75,0.00,,,0.00,Wunderground v.1.15,2013-05-10 01:14:00,
2013-05-09 18:18:00,65.4,57.3,30.02,SW,225,3.0,3.0,75,0.00,,,0.00,Wunderground v.1.15,2013-05-10 01:18:00,
2013-05-09 18:20:00,65.2,57.1,30.02,South,175,3.0,4.0,75,0.00,,,0.00,Wunderground v.1.15,2013-05-10 01:20:00,
2013-05-09 18:24:00,65.1,57.3,30.02,SSW,194,3.0,4.0,76,0.00,,,0.00,Wunderground v.1.15,2013-05-10 01:24:00,
2013-05-09 18:26:00,65.1,57.7,30.02,SW,235,3.0,7.0,77,0.00,,,0.00,Wunderground v.1.15,2013-05-10 01:26:00,
2013-05-09 18:28:00,65.1,57.7,30.02,SW,227,3.0,7.0,77,0.00,,,0.00,Wunderground v.1.15,2013-05-10 01:28:00,
2013-05-09 18:34:00,64.9,57.5,30.02,SSW,195,3.0,4.0,77,0.00,,,0.00,Wunderground v.1.15,2013-05-10 01:34:00,
2013-05-09 18:40:00,64.9,57.9,30.03,South,187,3.0,3.0,78,0.00,,,0.00,Wunderground v.1.15,2013-05-10 01:40:00,
2013-05-09 18:42:00,64.8,57.8,30.03,SSW,201,3.0,7.0,78,0.00,,,0.00,Wunderground v.1.15,2013-05-10 01:42:00,
2013-05-09 18:44:00,64.7,57.7,30.03,SSW,198,3.0,7.0,78,0.00,,,0.00,Wunderground v.1.15,2013-05-10 01:44:00,
2013-05-09 18:46:00,64.6,57.6,30.03,SW,221,3.0,7.0,78,0.00,,,0.00,Wunderground v.1.15,2013-05-10 01:46:00,
2013-05-09 23:34:00,60.7,56.8,30.06,SW,225,0.0,0.0,87,0.00,,,0.00,Wunderground v.1.15,2013-05-10 06:34:00,
2013-05-09 23:36:00,60.7,56.8,30.06,SW,225,0.0,0.0,87,0.00,,,0.00,Wunderground v.1.15,2013-05-10 06:36:00,
2013-05-09 23:38:00,60.6,56.7,30.06,SW,225,0.0,0.0,87,0.00,,,0.00,Wunderground v.1.15,2013-05-10 06:38:00,
2013-05-09 23:44:00,60.4,56.5,30.06,SW,225,0.0,0.0,87,0.00,,,0.00,Wunderground v.1.15,2013-05-10 06:44:00,
2013-05-09 23:46:00,60.4,56.5,30.06,SW,225,0.0,0.0,87,0.00,,,0.00,Wunderground v.1.15,2013-05-10 06:46:00,
2013-05-09 23:48:00,60.4,56.5,30.06,SW,225,0.0,0.0,87,0.00,,,0.00,Wunderground v.1.15,2013-05-10 06:48:00,
2013-05-09 23:52:00,60.3,56.4,30.06,SW,225,0.0,0.0,87,0.00,,,0.00,Wunderground v.1.15,2013-05-10 06:52:00,
2013-05-09 23:54:00,60.3,56.4,30.07,SW,225,0.0,0.0,87,0.00,,,0.00,Wunderground v.1.15,2013-05-10 06:54:00,
2013-05-09 23:58:00,60.1,56.2,30.06,SW,225,0.0,0.0,87,0.00,,,0.00,Wunderground v.1.15,2013-05-10 06:58:00,